Flag for Germany Weather past 2 weeks in Papenburg, Lower Saxony, Germany

Now
42 °F

Low clouds.


Feels Like: 36 °F
Forecast: 32 / 37 °F
Wind: 9 mph from South

Location: Emden-Koenigspolder

Current Time: Jan 28, 2015 at 1:29:19 PM

Latest Report: Jan 28, 2015 at 1:00 PM


Visibility: 4 mi

Pressure: 29.44 "Hg

Humidity: 93%

Dew point: 40 °F

Location of PapenburgLocation

Historic Weather in Papenburg — Graph

°F

Papenburg temperature yesterday

Maximum temperature yesterday: 44 °F (at 1:00 PM)
Minimum temperature yesterday: 38 °F (at 11:00 PM)
Average temperature yesterday: 40 °F

Past Weeks' High & Low Weather Summary

 TemperatureHumidityPressure
High48 °F (Jan 15, 12:00 PM)100% (Jan 20, 11:00 AM)30.32 "Hg (Jan 20, 11:00 AM)
Low21 °F (Jan 23, 5:00 AM)71% (Jan 17, 3:00 PM)29.26 "Hg (Jan 15, 12:00 PM)
Average36 °F90%29.89 "Hg
* Reported Jan 13 12:00 Noon — Jan 28 12:00 Noon, Papenburg, Weather by CustomWeather, © 2014

Note: Actual official high and low records may vary slightly from our data, if they occured in-between our weather recording intervals... More about our weather records

Advertising

Papenburg weather history for previous 24 hours

 ConditionsComfort  
Time TempWeatherWind HumidityBarometerVisibility
12:00 PM
Jan 28
42 °FOvercast.9 mph86%29.50 "Hg7 mi
11:00 AM41 °FFog.9 mph89%29.58 "Hg4 mi
9:00 AM41 °FOvercast.7 mph90%29.72 "Hg3 mi
8:00 AM41 °FLow clouds.7 mph92%29.76 "Hg3 mi
7:00 AM40 °FDrizzle. Low clouds.7 mph95%29.81 "Hg2 mi
6:00 AM40 °FLow clouds.7 mph95%29.83 "Hg2 mi
5:00 AM40 °FFog.6 mph96%29.88 "Hg3 mi
3:00 AM39 °FFog.6 mph98%29.96 "Hg3 mi
2:00 AM39 °FLow clouds.5 mph96%29.99 "Hg6 mi
1:00 AM38 °FOvercast.5 mph93%30.03 "Hg9 mi
12:00 AM38 °FOvercast.2 mph95%30.05 "Hg7 mi
11:00 PM
Jan 27
38 °FOvercast.3 mph97%30.06 "Hg7 mi
9:00 PM39 °FFog.3 mph98%30.09 "Hg4 mi
8:00 PM39 °FPassing clouds.3 mph97%30.10 "Hg6 mi
7:00 PM39 °FOvercast.5 mph96%30.11 "Hg8 mi
6:00 PM40 °FOvercast.3 mph91%30.11 "Hg14 mi
5:00 PM40 °FOvercast.3 mph91%30.10 "Hg13 mi
3:00 PM43 °FPassing clouds.9 mph85%30.10 "Hg2 mi
2:00 PM44 °FOvercast.6 mph84%30.09 "Hg11 mi
1:00 PM44 °FOvercast.8 mph80%30.09 "Hg12 mi
Weather by CustomWeather, © 2014

See weather overviewHow to use our weather pages